CW0561 Weather Reports


time (UTC)temp
C
wind
direction
speed
KPH
gust
KPH
rain 1hr
cm
rain 24hr
cm
rain mn
cm
humidity
%
barometer
mb
20230128002903 -9 264 14.5 29.0 0.00 0.00 0.00 68 1009.1
20230128001903 -8 271 11.3 29.0 0.00 0.00 0.00 67 1008.9
20230128000902 -8 275 8.0 37.0 0.00 0.00 0.00 66 1008.7
20230127235902 -8 262 33.8 41.8 0.00 0.00 0.00 66 1008.3
20230127233902 -8 291 6.4 22.5 0.00 0.00 0.00 67 1007.8
20230127232902 -8 265 25.7 33.8 0.00 0.00 0.00 67 1007.3
20230127231902 -8 281 14.5 29.0 0.00 0.00 0.00 66 1007.0
20230127225902 -7 271 41.8 37.0 0.00 0.00 0.00 66 1006.5
20230127223902 -6 247 30.6 37.0 0.00 0.00 0.00 65 1006.0
20230127222902 -6 259 29.0 46.7 0.00 0.00 0.00 65 1005.8
20230127221902 -6 301 19.3 37.0 0.00 0.00 0.00 63 1005.6
20230127220902 -6 273 19.3 38.6 0.00 0.00 0.00 63 1005.3
20230127215902 -6 272 14.5 43.5 0.00 0.00 0.00 64 1005.1
20230127214902 -6 272 29.0 27.4 0.00 0.00 0.00 66 1004.8
20230127213902 -6 262 11.3 37.0 0.00 0.00 0.00 66 1004.6
20230127212902 -6 277 33.8 38.6 0.00 0.00 0.00 65 1004.4
20230127211902 -6 267 17.7 32.2 0.00 0.00 0.00 67 1004.3
20230127210902 -6 254 22.5 32.2 0.00 0.00 0.00 68 1004.1
20230127205903 -6 263 25.7 33.8 0.00 0.00 0.00 69 1003.8
20230127204902 -6 276 29.0 33.8 0.00 0.00 0.00 68 1003.7
20230127203902 -6 284 25.7 41.8 0.00 0.00 0.00 69 1003.4
20230127202902 -6 275 19.3 37.0 0.00 0.00 0.00 69 1003.3
20230127201903 -6 275 22.5 41.8 0.00 0.00 0.00 69 1003.3
20230127200902 -6 323 29.0 53.1 0.00 0.00 0.00 69 1003.1
20230127195903 -6 286 29.0 37.0 0.00 0.00 0.00 69 1002.9
20230127194902 -5 224 37.0 56.3 0.00 0.00 0.00 70 1002.7
20230127193902 -5 251 19.3 51.5 0.00 0.00 0.00 71 1002.6
20230127191903 -5 275 22.5 38.6 0.00 0.00 0.00 72 1002.2
20230127185902 -6 284 22.5 46.7 0.00 0.00 0.00 72 1001.9
20230127183902 -5 229 14.5 57.9 0.00 0.00 0.00 73 1001.5
20230127181902 -6 291 8.0 51.5 0.00 0.00 0.00 75 1001.2
20230127180902 -5 263 25.7 43.5 0.00 0.00 0.00 74 1001.3
20230127175902 -5 265 30.6 51.5 0.00 0.00 0.00 75 1001.0
20230127173902 -5 276 22.5 41.8 0.00 0.00 0.00 77 1000.3
20230127172902 -5 261 25.7 51.5 0.00 0.00 0.00 77 1000.3
20230127171902 -5 290 30.6 53.1 0.00 0.00 0.00 78 1000.2
20230127170902 -5 231 17.7 43.5 0.00 0.00 0.00 80 1000.1
20230127164902 -5 275 25.7 41.8 0.00 0.00 0.00 80 999.7
20230127163902 -5 257 19.3 43.5 0.00 0.00 0.00 79 999.5
20230127162902 -4 279 29.0 66.0 0.00 0.00 0.00 80 999.3
20230127161902 -4 291 17.7 51.5 0.00 0.00 0.00 81 999.0
20230127160902 -3 294 8.0 41.8 0.00 0.00 0.00 81 998.7
20230127155902 -3 275 11.3 32.2 0.00 0.00 0.00 82 998.4
20230127154902 -3 300 14.5 29.0 0.00 0.00 0.00 83 998.2
20230127153902 -3 288 25.7 43.5 0.00 0.00 0.00 83 997.7
20230127152902 -2 315 30.6 38.6 0.00 0.00 0.00 84 997.6
20230127150902 -2 275 19.3 57.9 0.00 0.00 0.00 84 996.9
20230127145902 -2 252 25.7 43.5 0.00 0.00 0.00 85 996.5
20230127144902 -1 302 19.3 41.8 0.00 0.00 0.00 87 996.2
20230127143903 -1 297 37.0 43.5 0.00 0.00 0.00 89 995.9
20230127141902 -1 252 8.0 33.8 0.00 0.00 0.00 92 995.4
20230127140902 0 268 22.5 48.3 0.00 0.00 0.00 93 994.9
20230127135902 0 265 41.8 38.6 0.00 0.00 0.00 94 994.6
20230127133902 0 299 19.3 27.4 0.00 0.00 0.00 94 993.9
20230127132903 0 296 0.0 12.9 0.00 0.00 0.00 94 993.9
20230127131902 -1 258 0.0 0.0 0.00 0.00 0.00 94 993.6
20230127125902 -1 208 0.0 0.0 0.00 0.00 0.00 94 993.3
20230127124902 -1 208 0.0 0.0 0.00 0.00 0.00 94 993.2
20230127123902 -1 216 0.0 0.0 0.00 0.00 0.00 93 993.1
20230127122902 -1 217 0.0 0.0 0.00 0.00 0.00 93 993.0
20230127121901 -1 217 0.0 12.9 0.00 0.00 0.00 93 992.9
20230127120901 -1 189 6.4 12.9 0.00 0.00 0.00 93 992.8
20230127115902 -2 205 0.0 14.5 0.00 0.00 0.00 93 992.7
20230127114902 -2 189 8.0 17.7 0.00 0.00 0.00 93 992.6
20230127112901 -2 207 3.2 14.5 0.00 0.00 0.00 93 992.6
20230127111902 -2 203 8.0 14.5 0.00 0.00 0.00 93 992.7
20230127110901 -2 170 3.2 19.3 0.00 0.00 0.00 93 992.8
20230127105902 -2 193 8.0 17.7 0.00 0.00 0.00 92 992.9
20230127102902 -3 188 17.7 19.3 0.00 0.00 0.00 92 993.2
20230127101901 -3 198 8.0 22.5 0.00 0.00 0.00 92 993.2
20230127100901 -3 190 6.4 17.7 0.00 0.00 0.00 92 993.2
20230127095902 -3 204 14.5 19.3 0.00 0.00 0.00 92 993.4
20230127094902 -3 203 0.0 17.7 0.00 0.00 0.00 92 993.7
20230127093902 -3 207 11.3 27.4 0.00 0.00 0.00 92 993.9
20230127092901 -4 219 19.3 37.0 0.00 0.00 0.00 92 994.0
20230127091902 -4 192 11.3 27.4 0.00 0.00 0.00 92 994.3
20230127090901 -5 194 11.3 22.5 0.00 0.00 0.00 92 994.5
20230127085903 -5 180 11.3 29.0 0.00 0.00 0.00 91 994.6
20230127084901 -5 138 17.7 17.7 0.00 0.00 0.00 91 994.8
20230127083901 -5 173 6.4 24.1 0.00 0.00 0.00 91 995.0
20230127081901 -6 182 3.2 27.4 0.00 0.00 0.00 90 995.5
20230127080901 -6 164 14.5 37.0 0.00 0.00 0.00 91 995.8
20230127075902 -6 190 14.5 29.0 0.00 0.00 0.00 90 995.9
20230127074901 -7 196 11.3 24.1 0.00 0.00 0.00 90 996.2
20230127073901 -7 157 14.5 22.5 0.00 0.00 0.00 90 996.4
20230127072901 -7 190 22.5 24.1 0.00 0.00 0.00 90 996.6
20230127071901 -7 182 11.3 27.4 0.00 0.00 0.00 89 996.8
20230127070901 -8 161 11.3 27.4 0.00 0.00 0.00 89 997.0
20230127065902 -8 158 30.6 37.0 0.00 0.00 0.00 89 997.2
20230127064902 -8 155 11.3 41.8 0.00 0.00 0.00 89 997.4
20230127063901 -8 175 14.5 27.4 0.00 0.00 0.00 88 997.8
20230127062901 -8 169 11.3 24.1 0.00 0.00 0.00 88 998.2
20230127061901 -8 176 29.0 29.0 0.00 0.00 0.00 87 998.5
20230127060901 -9 167 17.7 37.0 0.00 0.00 0.00 87 998.8
20230127055903 -9 161 14.5 32.2 0.00 0.00 0.00 86 999.1
20230127054901 -9 174 6.4 29.0 0.00 0.00 0.00 86 999.3
20230127053901 -9 168 17.7 32.2 0.00 0.00 0.00 86 999.6
20230127052901 -9 149 17.7 27.4 0.00 0.00 0.00 85 999.9
20230127051901 -10 131 22.5 29.0 0.00 0.00 0.00 85 1000.1
20230127050901 -10 130 25.7 29.0 0.00 0.00 0.00 84 1000.4
20230127045902 -9 115 19.3 33.8 0.00 0.00 0.00 83 1000.9
20230127044901 -9 175 14.5 24.1 0.00 0.00 0.00 83 1001.2
20230127042902 -9 185 3.2 32.2 0.00 0.00 0.00 82 1002.2
20230127040901 -9 161 11.3 24.1 0.00 0.00 0.00 82 1002.7
20230127035901 -10 146 29.0 24.1 0.00 0.00 0.00 81 1002.9
20230127034901 -10 174 14.5 27.4 0.00 0.00 0.00 81 1003.0
20230127031901 -10 203 11.3 29.0 0.00 0.00 0.00 81 1004.1
20230127025901 -10 163 17.7 29.0 0.00 0.00 0.00 82 1004.5
20230127023901 -10 155 14.5 29.0 0.00 0.00 0.00 82 1004.5
20230127022901 -10 188 14.5 33.8 0.00 0.00 0.00 82 1004.9
20230127021901 -10 175 11.3 24.1 0.00 0.00 0.00 82 1005.2
20230127015901 -10 165 11.3 32.2 0.00 0.00 0.00 81 1005.7
20230127014901 -10 188 11.3 22.5 0.00 0.00 0.00 80 1005.9
20230127012901 -10 193 8.0 19.3 0.00 0.00 0.00 79 1006.8
20230127011901 -10 215 14.5 24.1 0.00 0.00 0.00 78 1007.2
20230127005902 -10 202 17.7 19.3 0.00 0.00 0.00 76 1007.9
20230127004902 -10 215 11.3 17.7 0.00 0.00 0.00 75 1008.0
20230127003901 -10 204 14.5 17.7 0.00 0.00 0.00 75 1008.1